This is the latest recevied weather packets stored in our database for station/object DH9SB-6. If no packets are shown the sender has not sent any weather packets the latest 10 day(s).
| Time | Temp. | Humidity | Pressure | Rain* | Wind** | Luminosity | Snow |
|---|---|---|---|---|---|---|---|
| 1777872780 | 11.67° C | 80% | - | 0 mm | - | - | - |
| 1777872154 | 11.11° C | 81% | - | 0 mm | - | - | - |
| 1777871582 | 10.56° C | 83% | - | 0 mm | - | - | - |
| 1777870955 | 9.44° C | 81% | - | 0 mm | - | - | - |
| 1777870378 | 9.44° C | 82% | - | 0 mm | - | - | - |
| 1777869753 | 9.44° C | 82% | - | 0 mm | - | - | - |
| 1777869178 | 9.44° C | 81% | - | 0 mm | - | - | - |
| 1777868602 | 9.44° C | 81% | - | 0 mm | - | - | - |
| 1777867978 | 9.44° C | 81% | - | 0 mm | - | - | - |
| 1777867354 | 9.44° C | 81% | - | 0 mm | - | - | - |
| 1777866778 | 9.44° C | 80% | - | 0 mm | - | - | - |
| 1777866154 | 9.44° C | 79% | - | 0 mm | - | - | - |
| 1777865580 | 10° C | 79% | - | 0 mm | - | - | - |
| 1777864953 | 10° C | 79% | - | 0 mm | - | - | - |
| 1777864377 | 10.56° C | 79% | - | 0 mm | - | - | - |
| 1777863755 | 10.56° C | 78% | - | 0 mm | - | - | - |
| 1777863177 | 10.56° C | 77% | - | 0 mm | - | - | - |
| 1777862553 | 10.56° C | 77% | - | 0 mm | - | - | - |
| 1777861978 | 11.11° C | 76% | - | 0 mm | - | - | - |
| 1777861354 | 11.11° C | 75% | - | 0 mm | - | - | - |
| 1777860777 | 11.67° C | 74% | - | 0 mm | - | - | - |
| 1777860154 | 11.67° C | 74% | - | 0 mm | - | - | - |
| 1777859628 | 12.22° C | 73% | - | 0 mm | - | - | - |
| 1777858961 | 12.22° C | 73% | - | 0 mm | - | - | - |
| 1777858377 | 12.78° C | 68% | - | 0 mm | - | - | - |
* Rain latest hour (hover to see other rain measurements)
** Current wind speed in m/s (hover to see current wind gust speed)